Time,TemperatureF,DewpointF,PressureIn,WindDirection,WindDirectionDegrees,WindSpeedMPH,WindSpeedGustMPH,Humidity,HourlyPrecipIn,Conditions,Clouds,dailyrainin,SoftwareType,DateUTC
2013-04-06 00:00:00,40.9,32.9,29.85,NNW,327,6.0,6.0,73,0.00,,,0.07,Wunderground v.1.15,2013-04-06 04:00:00,
2013-04-06 00:10:00,40.7,32.7,29.86,NNE,19,6.0,7.0,73,0.00,,,0.00,Wunderground v.1.15,2013-04-06 04:10:00,
2013-04-06 00:20:00,40.4,32.4,29.86,ENE,63,5.0,5.0,73,0.00,,,0.00,Wunderground v.1.15,2013-04-06 04:20:00,
2013-04-06 00:30:00,40.3,31.6,29.86,NW,304,4.0,7.0,71,0.00,,,0.00,Wunderground v.1.15,2013-04-06 04:30:00,
2013-04-06 00:40:00,40.1,31.8,29.87,NNW,331,5.0,5.0,72,0.00,,,0.00,Wunderground v.1.15,2013-04-06 04:40:00,
2013-04-06 00:50:00,40.0,32.0,29.88,WNW,300,6.0,6.0,73,0.00,,,0.00,Wunderground v.1.15,2013-04-06 04:50:00,
2013-04-06 01:00:00,39.7,32.4,29.88,West,281,4.0,5.0,75,0.00,,,0.00,Wunderground v.1.15,2013-04-06 05:00:00,
2013-04-06 01:10:00,39.4,32.8,29.88,North,1,3.0,3.0,77,0.00,,,0.00,Wunderground v.1.15,2013-04-06 05:10:00,
2013-04-06 01:20:00,39.3,31.4,29.88,West,262,4.0,5.0,73,0.00,,,0.00,Wunderground v.1.15,2013-04-06 05:20:00,
2013-04-06 01:30:00,39.1,30.1,29.89,NNW,333,4.0,5.0,70,0.00,,,0.00,Wunderground v.1.15,2013-04-06 05:30:00,
2013-04-06 01:40:00,38.9,28.5,29.89,NNW,347,5.0,5.0,66,0.00,,,0.00,Wunderground v.1.15,2013-04-06 05:40:00,
2013-04-06 01:50:00,38.7,28.3,29.90,NW,316,4.0,4.0,66,0.00,,,0.00,Wunderground v.1.15,2013-04-06 05:50:00,
2013-04-06 02:00:00,38.4,29.1,29.90,East,82,3.0,3.0,69,0.00,,,0.00,Wunderground v.1.15,2013-04-06 06:00:00,
2013-04-06 02:10:00,38.4,28.4,29.91,NNW,340,4.0,4.0,67,0.00,,,0.00,Wunderground v.1.15,2013-04-06 06:10:00,
2013-04-06 02:20:00,38.2,27.8,29.91,NW,318,3.0,3.0,66,0.00,,,0.00,Wunderground v.1.15,2013-04-06 06:20:00,
2013-04-06 02:40:00,38.0,26.9,29.92,NW,321,4.0,6.0,64,0.00,,,0.00,Wunderground v.1.15,2013-04-06 06:40:00,
2013-04-06 02:50:00,37.8,26.3,29.92,WNW,290,4.0,4.0,63,0.00,,,0.00,Wunderground v.1.15,2013-04-06 06:50:00,
2013-04-06 03:00:00,37.6,26.5,29.92,North,8,4.0,5.0,64,0.00,,,0.00,Wunderground v.1.15,2013-04-06 07:00:00,
2013-04-06 03:10:00,37.6,26.9,29.93,West,278,4.0,5.0,65,0.00,,,0.00,Wunderground v.1.15,2013-04-06 07:10:00,
2013-04-06 03:20:00,37.3,27.0,29.93,NNW,331,3.0,4.0,66,0.00,,,0.00,Wunderground v.1.15,2013-04-06 07:20:00,
2013-04-06 03:30:00,37.0,27.1,29.94,West,268,2.0,2.0,67,0.00,,,0.00,Wunderground v.1.15,2013-04-06 07:30:00,
2013-04-06 03:40:00,37.0,27.4,29.95,NW,314,3.0,3.0,68,0.00,,,0.00,Wunderground v.1.15,2013-04-06 07:40:00,
2013-04-06 03:50:00,36.8,26.9,29.96,SW,235,3.0,3.0,67,0.00,,,0.00,Wunderground v.1.15,2013-04-06 07:50:00,
2013-04-06 04:00:00,36.6,25.9,29.97,West,280,3.0,3.0,65,0.00,,,0.00,Wunderground v.1.15,2013-04-06 08:00:00,
2013-04-06 04:10:00,36.5,25.8,29.97,NE,49,3.0,3.0,65,0.00,,,0.00,Wunderground v.1.15,2013-04-06 08:10:00,
2013-04-06 04:20:00,36.3,25.7,29.98,NW,307,3.0,3.0,65,0.00,,,0.00,Wunderground v.1.15,2013-04-06 08:20:00,
2013-04-06 04:30:00,36.3,25.3,29.98,WSW,255,4.0,9.0,64,0.00,,,0.00,Wunderground v.1.15,2013-04-06 08:30:00,
2013-04-06 04:40:00,36.1,26.2,29.99,NNE,30,3.0,4.0,67,0.00,,,0.00,Wunderground v.1.15,2013-04-06 08:40:00,
2013-04-06 04:50:00,35.7,26.5,29.99,NE,44,2.0,2.0,69,0.00,,,0.00,Wunderground v.1.15,2013-04-06 08:50:00,
2013-04-06 05:00:00,35.3,26.5,30.00,WSW,255,2.0,2.0,70,0.00,,,0.00,Wunderground v.1.15,2013-04-06 09:00:00,
2013-04-06 05:10:00,35.1,26.6,30.00,WSW,238,2.0,2.0,71,0.00,,,0.00,Wunderground v.1.15,2013-04-06 09:10:00,
2013-04-06 05:20:00,35.1,25.2,30.01,WNW,293,3.0,3.0,67,0.00,,,0.00,Wunderground v.1.15,2013-04-06 09:20:00,
2013-04-06 05:30:00,35.1,25.6,30.02,NNW,339,4.0,4.0,68,0.00,,,0.00,Wunderground v.1.15,2013-04-06 09:30:00,
2013-04-06 05:40:00,34.9,25.4,30.03,NNW,348,3.0,3.0,68,0.00,,,0.00,Wunderground v.1.15,2013-04-06 09:40:00,
2013-04-06 05:50:00,34.7,24.9,30.03,NNW,344,3.0,3.0,67,0.00,,,0.00,Wunderground v.1.15,2013-04-06 09:50:00,
2013-04-06 06:00:00,34.6,23.7,30.04,WNW,297,4.0,4.0,64,0.00,,,0.00,Wunderground v.1.15,2013-04-06 10:00:00,
2013-04-06 06:10:00,34.5,23.6,30.05,NW,316,3.0,5.0,64,0.00,,,0.00,Wunderground v.1.15,2013-04-06 10:10:00,
2013-04-06 06:20:00,34.5,22.8,30.05,WSW,238,4.0,4.0,62,0.00,,,0.00,Wunderground v.1.15,2013-04-06 10:20:00,
2013-04-06 06:30:00,34.7,23.0,30.06,SSW,205,3.0,3.0,62,0.00,,,0.00,Wunderground v.1.15,2013-04-06 10:30:00,
2013-04-06 06:40:00,34.9,22.8,30.06,WNW,295,5.0,5.0,61,0.00,,,0.00,Wunderground v.1.15,2013-04-06 10:40:00,
2013-04-06 06:50:00,35.0,22.5,30.07,NNW,339,5.0,5.0,60,0.00,,,0.00,Wunderground v.1.15,2013-04-06 10:50:00,
2013-04-06 07:00:00,35.0,21.7,30.08,NNW,344,5.0,5.0,58,0.00,,,0.00,Wunderground v.1.15,2013-04-06 11:00:00,
2013-04-06 07:10:00,34.8,21.1,30.09,North,359,4.0,7.0,57,0.00,,,0.00,Wunderground v.1.15,2013-04-06 11:10:00,
2013-04-06 07:20:00,35.2,21.9,30.09,WNW,302,4.0,4.0,58,0.00,,,0.00,Wunderground v.1.15,2013-04-06 11:20:00,
2013-04-06 07:30:00,35.3,22.0,30.10,WNW,283,4.0,8.0,58,0.00,,,0.00,Wunderground v.1.15,2013-04-06 11:30:00,
2013-04-06 07:40:00,35.3,20.7,30.11,East,86,6.0,6.0,55,0.00,,,0.00,Wunderground v.1.15,2013-04-06 11:40:00,
2013-04-06 07:50:00,35.2,20.2,30.11,WNW,302,5.0,11.0,54,0.00,,,0.00,Wunderground v.1.15,2013-04-06 11:50:00,
2013-04-06 08:00:00,35.1,19.7,30.12,NW,323,6.0,6.0,53,0.00,,,0.00,Wunderground v.1.15,2013-04-06 12:00:00,
2013-04-06 08:10:00,35.6,19.2,30.13,SSE,159,4.0,4.0,51,0.00,,,0.00,Wunderground v.1.15,2013-04-06 12:10:00,
2013-04-06 08:20:00,35.5,19.1,30.14,SW,228,6.0,6.0,51,0.00,,,0.00,Wunderground v.1.15,2013-04-06 12:20:00,
2013-04-06 08:30:00,35.5,19.1,30.14,WSW,255,6.0,6.0,51,0.00,,,0.00,Wunderground v.1.15,2013-04-06 12:30:00,
2013-04-06 08:40:00,35.6,18.3,30.14,SSE,165,6.0,6.0,49,0.00,,,0.00,Wunderground v.1.15,2013-04-06 12:40:00,
2013-04-06 08:50:00,35.7,18.4,30.15,NW,310,5.0,6.0,49,0.00,,,0.00,Wunderground v.1.15,2013-04-06 12:50:00,
2013-04-06 09:00:00,35.8,17.5,30.16,WSW,255,5.0,5.0,47,0.00,,,0.00,Wunderground v.1.15,2013-04-06 13:00:00,
2013-04-06 09:10:00,35.7,16.9,30.16,ENE,73,6.0,6.0,46,0.00,,,0.00,Wunderground v.1.15,2013-04-06 13:10:00,
2013-04-06 09:20:00,36.0,17.2,30.17,WNW,299,6.0,6.0,46,0.00,,,0.00,Wunderground v.1.15,2013-04-06 13:20:00,
2013-04-06 09:30:00,36.0,15.6,30.18,NNW,328,6.0,6.0,43,0.00,,,0.00,Wunderground v.1.15,2013-04-06 13:30:00,
2013-04-06 09:40:00,35.6,16.3,30.18,NW,321,6.0,6.0,45,0.00,,,0.00,Wunderground v.1.15,2013-04-06 13:40:00,
2013-04-06 09:50:00,35.5,16.7,30.18,NE,41,5.0,7.0,46,0.00,,,0.00,Wunderground v.1.15,2013-04-06 13:50:00,
2013-04-06 10:00:00,35.9,17.6,30.19,SW,219,5.0,5.0,47,0.00,,,0.00,Wunderground v.1.15,2013-04-06 14:00:00,
2013-04-06 10:10:00,36.1,16.3,30.20,SE,143,5.0,5.0,44,0.00,,,0.00,Wunderground v.1.15,2013-04-06 14:10:00,
2013-04-06 10:20:00,36.0,16.2,30.20,NNW,332,5.0,6.0,44,0.00,,,0.00,Wunderground v.1.15,2013-04-06 14:20:00,
2013-04-06 10:30:00,35.3,14.5,30.21,NW,312,7.0,7.0,42,0.00,,,0.00,Wunderground v.1.15,2013-04-06 14:30:00,
2013-04-06 10:40:00,35.5,14.1,30.21,WNW,287,6.0,8.0,41,0.00,,,0.00,Wunderground v.1.15,2013-04-06 14:40:00,
2013-04-06 10:50:00,35.9,14.5,30.20,NW,309,4.0,5.0,41,0.00,,,0.00,Wunderground v.1.15,2013-04-06 14:50:00,
2013-04-06 11:00:00,36.2,15.8,30.21,WNW,293,5.0,5.0,43,0.00,,,0.00,Wunderground v.1.15,2013-04-06 15:00:00,
2013-04-06 11:10:00,36.0,14.0,30.21,West,264,6.0,6.0,40,0.00,,,0.00,Wunderground v.1.15,2013-04-06 15:10:00,
2013-04-06 11:20:00,35.8,12.6,30.22,WNW,294,6.0,6.0,38,0.00,,,0.00,Wunderground v.1.15,2013-04-06 15:20:00,
2013-04-06 11:30:00,36.3,15.4,30.21,NW,325,6.0,6.0,42,0.00,,,0.00,Wunderground v.1.15,2013-04-06 15:30:00,
2013-04-06 11:40:00,36.6,14.5,30.22,NNE,23,5.0,8.0,40,0.00,,,0.00,Wunderground v.1.15,2013-04-06 15:40:00,
2013-04-06 11:50:00,36.5,15.0,30.23,NE,46,5.0,5.0,41,0.00,,,0.00,Wunderground v.1.15,2013-04-06 15:50:00,
2013-04-06 12:00:00,36.7,14.6,30.23,West,281,5.0,12.0,40,0.00,,,0.00,Wunderground v.1.15,2013-04-06 16:00:00,
2013-04-06 12:10:00,37.1,15.0,30.23,WNW,287,5.0,5.0,40,0.00,,,0.00,Wunderground v.1.15,2013-04-06 16:10:00,
2013-04-06 12:20:00,37.1,12.6,30.22,WNW,284,6.0,6.0,36,0.00,,,0.00,Wunderground v.1.15,2013-04-06 16:20:00,
2013-04-06 12:30:00,38.0,15.2,30.22,West,271,4.0,4.0,39,0.00,,,0.00,Wunderground v.1.15,2013-04-06 16:30:00,
2013-04-06 12:40:00,37.1,13.8,30.23,SW,226,5.0,7.0,38,0.00,,,0.00,Wunderground v.1.15,2013-04-06 16:40:00,
2013-04-06 12:50:00,38.4,15.6,30.22,WSW,237,4.0,7.0,39,0.00,,,0.00,Wunderground v.1.15,2013-04-06 16:50:00,
2013-04-06 13:00:00,38.0,12.7,30.24,West,272,6.0,6.0,35,0.00,,,0.00,Wunderground v.1.15,2013-04-06 17:00:00,
2013-04-06 13:10:00,38.0,13.4,30.23,West,264,5.0,6.0,36,0.00,,,0.00,Wunderground v.1.15,2013-04-06 17:10:00,
2013-04-06 13:20:00,38.2,14.8,30.23,NNW,329,5.0,5.0,38,0.00,,,0.00,Wunderground v.1.15,2013-04-06 17:20:00,
2013-04-06 13:30:00,38.1,14.1,30.23,WNW,282,6.0,8.0,37,0.00,,,0.00,Wunderground v.1.15,2013-04-06 17:30:00,
2013-04-06 13:40:00,38.6,13.9,30.23,NNW,328,5.0,8.0,36,0.00,,,0.00,Wunderground v.1.15,2013-04-06 17:40:00,
2013-04-06 13:50:00,38.6,13.3,30.22,NNE,20,6.0,7.0,35,0.00,,,0.00,Wunderground v.1.15,2013-04-06 17:50:00,
2013-04-06 14:00:00,38.9,13.5,30.23,East,88,5.0,6.0,35,0.00,,,0.00,Wunderground v.1.15,2013-04-06 18:00:00,
2013-04-06 14:10:00,38.9,12.9,30.23,NW,308,6.0,6.0,34,0.00,,,0.00,Wunderground v.1.15,2013-04-06 18:10:00,
2013-04-06 14:20:00,39.5,13.4,30.23,WNW,285,5.0,5.0,34,0.00,,,0.00,Wunderground v.1.15,2013-04-06 18:20:00,
2013-04-06 14:30:00,40.4,14.2,30.23,NW,319,4.0,6.0,34,0.00,,,0.00,Wunderground v.1.15,2013-04-06 18:30:00,
2013-04-06 14:40:00,39.8,13.0,30.23,NE,42,5.0,9.0,33,0.00,,,0.00,Wunderground v.1.15,2013-04-06 18:40:00,
2013-04-06 14:50:00,40.1,11.8,30.24,NE,42,5.0,5.0,31,0.00,,,0.00,Wunderground v.1.15,2013-04-06 18:50:00,
2013-04-06 15:00:00,40.4,12.8,30.25,North,353,3.0,5.0,32,0.00,,,0.00,Wunderground v.1.15,2013-04-06 19:00:00,
2013-04-06 15:10:00,40.1,13.3,30.24,NW,317,5.0,5.0,33,0.00,,,0.00,Wunderground v.1.15,2013-04-06 19:10:00,
2013-04-06 15:20:00,40.7,12.4,30.24,WSW,250,4.0,4.0,31,0.00,,,0.00,Wunderground v.1.15,2013-04-06 19:20:00,
2013-04-06 15:30:00,40.5,11.4,30.25,ENE,64,5.0,5.0,30,0.00,,,0.00,Wunderground v.1.15,2013-04-06 19:30:00,
2013-04-06 15:40:00,41.4,13.7,30.24,North,9,2.0,6.0,32,0.00,,,0.00,Wunderground v.1.15,2013-04-06 19:40:00,
2013-04-06 15:50:00,41.3,14.3,30.24,NNW,333,3.0,3.0,33,0.00,,,0.00,Wunderground v.1.15,2013-04-06 19:50:00,
2013-04-06 16:00:00,41.4,11.5,30.25,NNW,342,3.0,3.0,29,0.00,,,0.00,Wunderground v.1.15,2013-04-06 20:00:00,
2013-04-06 16:10:00,41.7,13.2,30.25,West,274,3.0,3.0,31,0.00,,,0.00,Wunderground v.1.15,2013-04-06 20:10:00,
2013-04-06 16:20:00,41.8,12.6,30.25,NNW,343,2.0,3.0,30,0.00,,,0.00,Wunderground v.1.15,2013-04-06 20:20:00,
2013-04-06 16:30:00,42.1,13.6,30.25,North,350,1.0,5.0,31,0.00,,,0.00,Wunderground v.1.15,2013-04-06 20:30:00,
2013-04-06 16:40:00,41.6,12.4,30.26,NNW,330,3.0,3.0,30,0.00,,,0.00,Wunderground v.1.15,2013-04-06 20:40:00,
2013-04-06 16:50:00,41.6,11.6,30.26,North,11,2.0,7.0,29,0.00,,,0.00,Wunderground v.1.15,2013-04-06 20:50:00,
2013-04-06 17:00:00,41.0,11.9,30.26,NW,321,3.0,4.0,30,0.00,,,0.00,Wunderground v.1.15,2013-04-06 21:00:00,
2013-04-06 17:10:00,41.1,13.4,30.26,SW,221,2.0,2.0,32,0.00,,,0.00,Wunderground v.1.15,2013-04-06 21:10:00,
2013-04-06 17:20:00,41.6,12.4,30.27,NNE,20,1.0,2.0,30,0.00,,,0.00,Wunderground v.1.15,2013-04-06 21:20:00,
2013-04-06 17:30:00,41.3,12.1,30.28,WNW,293,1.0,2.0,30,0.00,,,0.00,Wunderground v.1.15,2013-04-06 21:30:00,
2013-04-06 17:40:00,40.9,14.0,30.28,WSW,239,2.0,2.0,33,0.00,,,0.00,Wunderground v.1.15,2013-04-06 21:40:00,
2013-04-06 17:50:00,40.4,11.4,30.29,NE,55,1.0,1.0,30,0.00,,,0.00,Wunderground v.1.15,2013-04-06 21:50:00,
2013-04-06 18:00:00,40.4,12.1,30.29,WNW,299,1.0,1.0,31,0.00,,,0.00,Wunderground v.1.15,2013-04-06 22:00:00,
2013-04-06 18:10:00,40.1,11.1,30.30,NE,34,1.0,1.0,30,0.00,,,0.00,Wunderground v.1.15,2013-04-06 22:10:00,
2013-04-06 18:20:00,39.5,12.0,30.30,North,4,0.0,1.0,32,0.00,,,0.00,Wunderground v.1.15,2013-04-06 22:20:00,
2013-04-06 18:30:00,39.3,13.2,30.31,North,4,0.0,0.0,34,0.00,,,0.00,Wunderground v.1.15,2013-04-06 22:30:00,
2013-04-06 18:50:00,38.3,21.3,30.31,SSW,201,2.0,3.0,50,0.00,,,0.00,Wunderground v.1.15,2013-04-06 22:50:00,
2013-04-06 19:00:00,38.0,19.0,30.32,SW,232,2.0,3.0,46,0.00,,,0.00,Wunderground v.1.15,2013-04-06 23:00:00,
2013-04-06 19:10:00,37.7,19.3,30.32,SSW,212,3.0,3.0,47,0.00,,,0.00,Wunderground v.1.15,2013-04-06 23:10:00,
2013-04-06 19:20:00,37.5,19.1,30.33,SW,225,2.0,2.0,47,0.00,,,0.00,Wunderground v.1.15,2013-04-06 23:20:00,
2013-04-06 19:30:00,37.5,20.1,30.33,SSW,194,2.0,2.0,49,0.00,,,0.00,Wunderground v.1.15,2013-04-06 23:30:00,
2013-04-06 19:40:00,37.5,20.5,30.33,SW,229,3.0,3.0,50,0.00,,,0.00,Wunderground v.1.15,2013-04-06 23:40:00,
2013-04-06 19:50:00,37.5,22.8,30.34,SW,222,3.0,3.0,55,0.00,,,0.00,Wunderground v.1.15,2013-04-06 23:50:00,
2013-04-06 20:00:00,37.4,22.7,30.34,SW,235,3.0,4.0,55,0.00,,,0.00,Wunderground v.1.15,2013-04-07 00:00:00,
2013-04-06 20:10:00,37.3,23.4,30.35,SW,232,2.0,3.0,57,0.00,,,0.00,Wunderground v.1.15,2013-04-07 00:10:00,
2013-04-06 20:20:00,37.2,23.8,30.35,South,184,3.0,3.0,58,0.00,,,0.00,Wunderground v.1.15,2013-04-07 00:20:00,
2013-04-06 20:30:00,37.2,25.0,30.36,South,172,2.0,2.0,61,0.00,,,0.00,Wunderground v.1.15,2013-04-07 00:30:00,
2013-04-06 20:40:00,37.3,25.5,30.36,West,260,2.0,2.0,62,0.00,,,0.00,Wunderground v.1.15,2013-04-07 00:40:00,
2013-04-06 20:50:00,37.4,25.6,30.36,SSW,198,2.0,4.0,62,0.00,,,0.00,Wunderground v.1.15,2013-04-07 00:50:00,
2013-04-06 21:00:00,37.6,26.1,30.36,SSW,205,2.0,3.0,63,0.00,,,0.00,Wunderground v.1.15,2013-04-07 01:00:00,
2013-04-06 21:20:00,37.5,25.3,30.36,WNW,299,2.0,2.0,61,0.00,,,0.00,Wunderground v.1.15,2013-04-07 01:20:00,
2013-04-06 21:30:00,37.1,24.9,30.36,West,269,1.0,1.0,61,0.00,,,0.00,Wunderground v.1.15,2013-04-07 01:30:00,
2013-04-06 21:40:00,36.7,24.5,30.36,West,280,1.0,1.0,61,0.00,,,0.00,Wunderground v.1.15,2013-04-07 01:40:00,
2013-04-06 21:50:00,36.2,25.6,30.36,NW,308,1.0,1.0,65,0.00,,,0.00,Wunderground v.1.15,2013-04-07 01:50:00,
2013-04-06 22:00:00,36.3,26.0,30.36,West,274,1.0,1.0,66,0.00,,,0.00,Wunderground v.1.15,2013-04-07 02:00:00,
2013-04-06 22:10:00,36.4,26.8,30.36,WSW,255,1.0,1.0,68,0.00,,,0.00,Wunderground v.1.15,2013-04-07 02:10:00,
2013-04-06 22:20:00,36.5,26.6,30.36,WSW,250,1.0,1.0,67,0.00,,,0.00,Wunderground v.1.15,2013-04-07 02:20:00,
2013-04-06 22:30:00,36.7,27.5,30.36,West,269,1.0,1.0,69,0.00,,,0.00,Wunderground v.1.15,2013-04-07 02:30:00,
2013-04-06 22:40:00,36.6,28.1,30.36,WNW,294,1.0,1.0,71,0.00,,,0.00,Wunderground v.1.15,2013-04-07 02:40:00,
2013-04-06 22:50:00,36.6,28.4,30.36,SSW,197,1.0,1.0,72,0.00,,,0.00,Wunderground v.1.15,2013-04-07 02:50:00,
2013-04-06 23:00:00,36.6,28.4,30.36,SW,219,1.0,1.0,72,0.00,,,0.00,Wunderground v.1.15,2013-04-07 03:00:00,
2013-04-06 23:10:00,36.6,28.8,30.36,West,268,0.0,1.0,73,0.00,,,0.00,Wunderground v.1.15,2013-04-07 03:10:00,
2013-04-06 23:20:00,36.3,28.5,30.37,WNW,297,0.0,0.0,73,0.00,,,0.00,Wunderground v.1.15,2013-04-07 03:20:00,
2013-04-06 23:30:00,36.3,28.5,30.36,West,264,0.0,0.0,73,0.00,,,0.00,Wunderground v.1.15,2013-04-07 03:30:00,
2013-04-06 23:40:00,36.0,28.2,30.37,West,274,0.0,1.0,73,0.00,,,0.00,Wunderground v.1.15,2013-04-07 03:40:00,
2013-04-06 23:50:00,35.4,27.9,30.37,West,274,0.0,0.0,74,0.00,,,0.00,Wunderground v.1.15,2013-04-07 03:50:00,